Location: Bogis-Bossey
(46.3500°N, 6.1667°E)
Time: 17:19:34
(UTC+00:00)

Tsikada Rocket - Pass Details

Date: 17 August 2022
Orbit: 958 x 1008 km, 82.9° (Epoch: 30 September)

Event Time Altitude Azimuth Distance (km) Brightness Sun altitude
Exits shadow 22:25:38 71° 104° (ESE) 1,028 3.9 -28.2°
Maximum altitude 22:25:45 72° 95° (E) 1,027 3.9 -28.2°
Drops below altitude 10° 22:32:01 10° 12° (NNE) 2,749 7.1 -28.6°
Sets 22:34:34 0° 11° (N) 3,709 7.9 -28.7°
